Location: Namasale
(1.5000°N, 32.6167°E)
Time: 19:22:52
(UTC+00:00)

Vanguard 1 Rocket - Pass Details

Date: 24 April 2021
Orbit: 652 x 4224 km, 34.3° (Epoch: 10 May)

Event Time Altitude Azimuth Distance (km) Brightness Sun altitude
Rises 05:00:21 0° 228° (SW) 8,452 11.8 18.0°
Reaches altitude 10° 05:06:40 10° 226° (SW) 7,276 11.6 19.6°
Maximum altitude 05:30:02 69° 146° (SE) 3,015 10.6 25.3°
Drops below altitude 10° 05:42:28 10° 65° (ENE) 4,224 12.4 28.3°
Sets 05:45:03 0° 62° (ENE) 4,879 12.3 28.9°
